| time (UTC) | temp C | wind direction | speed KPH | gust KPH | rain 1hr cm | rain 24hr cm | rain mn cm | humidity % | barometer mb |
| 20260507071535 | -17 | 0.0 | 0.0 | 0.00 | 0.18 | 0.03 | 1010.4 | ||
| 20260507071015 | -17 | 0.0 | 0.0 | 0.00 | 0.18 | 0.03 | 1010.3 | ||
| 20260507070509 | -17 | 0.0 | 0.0 | 0.00 | 0.18 | 0.03 | 1010.4 | ||
| 20260507070027 | -17 | 0.0 | 0.0 | 0.00 | 0.18 | 0.03 | 1010.6 | ||
| 20260507065514 | -17 | 0.0 | 0.0 | 0.00 | 0.18 | 0.03 | 1010.7 | ||
| 20260507065011 | -17 | 0.0 | 0.0 | 0.00 | 0.18 | 0.03 | 1010.6 | ||
| 20260507064529 | -17 | 0.0 | 0.0 | 0.00 | 0.18 | 0.03 | 1010.3 | ||
| 20260507064009 | -17 | 0.0 | 0.0 | 0.00 | 0.18 | 0.03 | 1010.3 | ||
| 20260507063513 | -17 | 0.0 | 0.0 | 0.00 | 0.18 | 0.03 | 1010.2 | ||
| 20260507063029 | -17 | 0.0 | 0.0 | 0.03 | 0.18 | 0.03 | 1010.1 | ||
| 20260507062510 | -17 | 0.0 | 0.0 | 0.03 | 0.18 | 0.03 | 1010.2 | ||
| 20260507062012 | -17 | 0.0 | 0.0 | 0.03 | 0.18 | 0.03 | 1010.4 | ||
| 20260507061528 | -17 | 0.0 | 0.0 | 0.03 | 0.18 | 0.03 | 1010.6 | ||
| 20260507061011 | -17 | 1.6 | 11.3 | 0.03 | 0.18 | 0.03 | 84 | 1010.4 | |
| 20260507060505 | 13 | 306 | 0.0 | 11.3 | 0.03 | 0.18 | 0.03 | 84 | 1010.7 |
| 20260507060020 | 13 | 336 | 3.2 | 11.3 | 0.03 | 0.18 | 0.03 | 84 | 1010.6 |
| 20260507055506 | 14 | 17 | 3.2 | 8.0 | 0.03 | 0.18 | 0.03 | 86 | 1010.6 |
| 20260507055009 | 14 | 360 | 4.8 | 8.0 | 0.03 | 0.18 | 0.03 | 86 | 1010.5 |
| 20260507054526 | 14 | 350 | 3.2 | 11.3 | 0.03 | 0.18 | 0.03 | 85 | 1010.5 |
| 20260507054012 | 15 | 340 | 3.2 | 11.3 | 0.03 | 0.18 | 0.03 | 84 | 1010.4 |
| 20260507053511 | 15 | 282 | 3.2 | 9.7 | 0.03 | 0.18 | 0.03 | 83 | 1010.4 |
| 20260507051525 | 16 | 298 | 1.6 | 6.4 | 0.00 | 0.15 | 0.00 | 76 | 1011.0 |
| 20260507050507 | 16 | 225 | 1.6 | 4.8 | 0.00 | 0.15 | 0.00 | 77 | 1010.9 |
| 20260507050029 | 17 | 268 | 1.6 | 9.7 | 0.00 | 0.15 | 0.00 | 76 | 1010.5 |
| 20260507045508 | 17 | 324 | 3.2 | 9.7 | 0.00 | 0.15 | 0.00 | 75 | 1010.7 |
| 20260507045006 | 17 | 283 | 1.6 | 6.4 | 0.00 | 0.15 | 0.00 | 76 | 1010.5 |
| 20260507044522 | 17 | 307 | 1.6 | 4.8 | 0.00 | 0.15 | 0.00 | 76 | 1010.5 |
| 20260507044008 | 17 | 360 | 1.6 | 4.8 | 0.00 | 0.15 | 0.00 | 77 | 1010.6 |
| 20260507043507 | 17 | 325 | 0.0 | 4.8 | 0.00 | 0.15 | 0.00 | 77 | 1010.2 |
| 20260507043033 | 17 | 327 | 1.6 | 6.4 | 0.00 | 0.15 | 0.00 | 77 | 1010.1 |
| 20260507042511 | 17 | 302 | 0.0 | 6.4 | 0.00 | 0.15 | 0.00 | 77 | 1010.1 |
| 20260507042012 | 17 | 290 | 0.0 | 3.2 | 0.00 | 0.15 | 0.00 | 77 | 1010.0 |
| 20260507041528 | 17 | 311 | 0.0 | 4.8 | 0.00 | 0.15 | 0.00 | 77 | 1009.8 |
| 20260507041007 | 17 | 311 | 0.0 | 4.8 | 0.00 | 0.15 | 0.00 | 76 | 1009.5 |
| 20260507040023 | 18 | 341 | 0.0 | 3.2 | 0.00 | 0.15 | 0.00 | 75 | 1009.5 |
| 20260507040003 | 18 | 329 | 0.0 | 3.2 | 0.00 | 0.15 | 0.00 | 75 | 1009.5 |
| 20260507035504 | 18 | 319 | 0.0 | 3.2 | 0.00 | 0.15 | 0.15 | 75 | 1009.7 |
| 20260507035003 | 18 | 317 | 0.0 | 3.2 | 0.00 | 0.15 | 0.15 | 75 | 1010.0 |
| 20260507034508 | 18 | 346 | 1.6 | 4.8 | 0.00 | 0.15 | 0.15 | 75 | 1010.0 |
| 20260507033504 | 18 | 11 | 1.6 | 4.8 | 0.00 | 0.15 | 0.15 | 76 | 1009.8 |
| 20260507033003 | 18 | 346 | 1.6 | 6.4 | 0.00 | 0.15 | 0.15 | 77 | 1009.8 |
| 20260507032503 | 18 | 300 | 0.0 | 6.4 | 0.00 | 0.15 | 0.15 | 78 | 1009.6 |
| 20260507032002 | 18 | 346 | 0.0 | 4.8 | 0.00 | 0.15 | 0.15 | 78 | 1009.6 |
| 20260507031508 | 18 | 318 | 0.0 | 4.8 | 0.00 | 0.15 | 0.15 | 78 | 1009.5 |
| 20260507031004 | 18 | 5 | 1.6 | 4.8 | 0.00 | 0.15 | 0.15 | 77 | 1009.6 |
| 20260507030504 | 18 | 307 | 0.0 | 3.2 | 0.00 | 0.15 | 0.15 | 80 | 1009.4 |
| 20260507030018 | 18 | 10 | 1.6 | 4.8 | 0.00 | 0.15 | 0.15 | 82 | 1009.4 |
| 20260507025506 | 18 | 186 | 1.6 | 4.8 | 0.00 | 0.15 | 0.15 | 82 | 1009.4 |
| 20260507025002 | 18 | 275 | 0.0 | 3.2 | 0.00 | 0.15 | 0.15 | 83 | 1009.5 |
| 20260507024504 | 18 | 269 | 0.0 | 3.2 | 0.00 | 0.15 | 0.15 | 83 | 1009.3 |
| 20260507024003 | 18 | 244 | 0.0 | 3.2 | 0.00 | 0.15 | 0.15 | 83 | 1009.1 |
| 20260507023503 | 18 | 244 | 0.0 | 3.2 | 0.00 | 0.15 | 0.15 | 83 | 1009.1 |
| 20260507023008 | 18 | 297 | 1.6 | 3.2 | 0.00 | 0.15 | 0.15 | 83 | 1009.2 |
| 20260507021517 | 19 | 211 | 0.0 | 0.0 | 0.00 | 0.15 | 0.15 | 83 | 1009.0 |
| 20260507021005 | 19 | 211 | 0.0 | 0.0 | 0.00 | 0.15 | 0.15 | 82 | 1008.9 |
| 20260507020504 | 19 | 211 | 0.0 | 0.0 | 0.00 | 0.15 | 0.15 | 82 | 1008.8 |
| 20260507020007 | 19 | 211 | 0.0 | 0.0 | 0.00 | 0.15 | 0.15 | 82 | 1008.8 |
| 20260507015506 | 19 | 211 | 0.0 | 0.0 | 0.00 | 0.15 | 0.15 | 81 | 1008.8 |
| 20260507015005 | 19 | 211 | 0.0 | 0.0 | 0.00 | 0.15 | 0.15 | 81 | 1009.0 |
| 20260507014517 | 19 | 211 | 0.0 | 0.0 | 0.00 | 0.15 | 0.15 | 81 | 1009.1 |
| 20260507014009 | 19 | 211 | 0.0 | 3.2 | 0.00 | 0.15 | 0.15 | 81 | 1009.4 |
| 20260507013504 | 19 | 211 | 0.0 | 3.2 | 0.00 | 0.15 | 0.15 | 81 | 1009.5 |
| 20260507013033 | 19 | 235 | 0.0 | 0.0 | 0.00 | 0.15 | 0.15 | 81 | 1009.4 |
| 20260507012503 | 19 | 236 | 0.0 | 0.0 | 0.00 | 0.15 | 0.15 | 81 | 1009.3 |
| 20260507012003 | 19 | 240 | 0.0 | 0.0 | 0.00 | 0.15 | 0.15 | 81 | 1009.5 |
| 20260507011509 | 19 | 240 | 0.0 | 0.0 | 0.00 | 0.15 | 0.15 | 81 | 1009.5 |
| 20260507011003 | 19 | 241 | 0.0 | 0.0 | 0.00 | 0.15 | 0.15 | 81 | 1009.5 |
| 20260507010504 | 19 | 242 | 0.0 | 0.0 | 0.00 | 0.15 | 0.15 | 80 | 1009.4 |
| 20260507010018 | 19 | 242 | 0.0 | 0.0 | 0.00 | 0.15 | 0.15 | 80 | 1009.2 |
| 20260507004508 | 19 | 220 | 0.0 | 0.0 | 0.00 | 0.15 | 0.15 | 80 | 1008.9 |
| 20260507004003 | 20 | 220 | 0.0 | 0.0 | 0.00 | 0.15 | 0.15 | 79 | 1008.8 |
| 20260507003503 | 20 | 220 | 0.0 | 0.0 | 0.00 | 0.15 | 0.15 | 79 | 1009.0 |
| 20260507003017 | 20 | 231 | 0.0 | 0.0 | 0.00 | 0.15 | 0.15 | 79 | 1008.9 |
| 20260507002504 | 20 | 231 | 0.0 | 0.0 | 0.00 | 0.15 | 0.15 | 79 | 1008.9 |
| 20260507002011 | 20 | 231 | 0.0 | 0.0 | 0.00 | 0.15 | 0.15 | 79 | 1009.0 |
| 20260507001520 | 20 | 231 | 0.0 | 1.6 | 0.00 | 0.15 | 0.15 | 79 | 1009.1 |
| 20260507001010 | 20 | 230 | 0.0 | 1.6 | 0.00 | 0.15 | 0.15 | 78 | 1009.1 |
| 20260507000505 | 20 | 281 | 0.0 | 3.2 | 0.00 | 0.15 | 0.15 | 78 | 1009.0 |
| 20260507000008 | 20 | 284 | 0.0 | 3.2 | 0.00 | 0.15 | 0.15 | 78 | 1008.9 |
| 20260506235505 | 20 | 255 | 0.0 | 3.2 | 0.00 | 0.15 | 0.15 | 78 | 1009.1 |
| 20260506235005 | 20 | 196 | 0.0 | 1.6 | 0.00 | 0.15 | 0.15 | 78 | 1008.8 |
| 20260506234517 | 20 | 227 | 0.0 | 1.6 | 0.00 | 0.15 | 0.15 | 78 | 1008.6 |
| 20260506234009 | 20 | 217 | 0.0 | 1.6 | 0.00 | 0.15 | 0.15 | 78 | 1008.6 |
| 20260506233507 | 20 | 243 | 0.0 | 3.2 | 0.00 | 0.15 | 0.15 | 77 | 1008.5 |
| 20260506232503 | 20 | 276 | 0.0 | 3.2 | 0.00 | 0.15 | 0.15 | 77 | 1008.3 |
| 20260506232006 | 20 | 234 | 0.0 | 0.0 | 0.00 | 0.15 | 0.15 | 77 | 1008.4 |
| 20260506231512 | 20 | 263 | 0.0 | 3.2 | 0.00 | 0.15 | 0.15 | 77 | 1008.4 |
| 20260506231004 | 20 | 244 | 0.0 | 3.2 | 0.00 | 0.15 | 0.15 | 76 | 1008.4 |
| 20260506230504 | 20 | 205 | 0.0 | 3.2 | 0.00 | 0.15 | 0.15 | 77 | 1008.2 |
| 20260506230020 | 20 | 258 | 0.0 | 3.2 | 0.00 | 0.15 | 0.15 | 76 | 1008.5 |
| 20260506225507 | 21 | 261 | 0.0 | 1.6 | 0.00 | 0.15 | 0.15 | 76 | 1008.4 |
| 20260506225008 | 21 | 276 | 0.0 | 3.2 | 0.00 | 0.15 | 0.15 | 76 | 1008.2 |
| 20260506224512 | 21 | 231 | 0.0 | 3.2 | 0.00 | 0.15 | 0.15 | 75 | 1008.2 |
| 20260506224006 | 21 | 290 | 0.0 | 3.2 | 0.00 | 0.15 | 0.15 | 75 | 1008.3 |
| 20260506223504 | 21 | 235 | 1.6 | 4.8 | 0.00 | 0.15 | 0.15 | 75 | 1008.3 |
| 20260506223013 | 21 | 246 | 0.0 | 6.4 | 0.00 | 0.15 | 0.15 | 75 | 1008.3 |
| 20260506222505 | 21 | 293 | 0.0 | 6.4 | 0.00 | 0.15 | 0.15 | 75 | 1008.3 |
| 20260506222007 | 21 | 263 | 0.0 | 8.0 | 0.00 | 0.15 | 0.15 | 75 | 1008.4 |
| 20260506221524 | 21 | 255 | 1.6 | 8.0 | 0.00 | 0.15 | 0.15 | 75 | 1008.4 |
| 20260506221009 | 21 | 271 | 3.2 | 8.0 | 0.00 | 0.15 | 0.15 | 74 | 1008.5 |
| 20260506220503 | 21 | 251 | 0.0 | 6.4 | 0.00 | 0.15 | 0.15 | 75 | 1008.4 |
| 20260506215505 | 21 | 298 | 1.6 | 9.7 | 0.00 | 0.15 | 0.15 | 74 | 1008.5 |
| 20260506215006 | 21 | 254 | 1.6 | 6.4 | 0.00 | 0.15 | 0.15 | 74 | 1008.4 |
| 20260506214520 | 21 | 173 | 1.6 | 4.8 | 0.00 | 0.15 | 0.15 | 74 | 1008.1 |
| 20260506213509 | 21 | 250 | 1.6 | 4.8 | 0.00 | 0.15 | 0.15 | 74 | 1008.2 |
| 20260506213025 | 21 | 236 | 0.0 | 6.4 | 0.00 | 0.15 | 0.15 | 74 | 1008.1 |
| 20260506212002 | 21 | 311 | 0.0 | 4.8 | 0.00 | 0.15 | 0.15 | 75 | 1008.2 |
| 20260506211516 | 21 | 227 | 1.6 | 6.4 | 0.00 | 0.15 | 0.15 | 74 | 1008.2 |
| 20260506211007 | 21 | 144 | 1.6 | 6.4 | 0.00 | 0.15 | 0.15 | 73 | 1008.0 |
| 20260506210507 | 21 | 290 | 1.6 | 6.4 | 0.00 | 0.15 | 0.15 | 74 | 1007.9 |
| 20260506210023 | 21 | 178 | 3.2 | 6.4 | 0.00 | 0.15 | 0.15 | 74 | 1007.9 |
| 20260506205507 | 21 | 250 | 0.0 | 8.0 | 0.00 | 0.15 | 0.15 | 73 | 1007.9 |
| 20260506205008 | 21 | 213 | 1.6 | 8.0 | 0.00 | 0.15 | 0.15 | 73 | 1007.8 |
| 20260506204525 | 21 | 219 | 0.0 | 4.8 | 0.00 | 0.15 | 0.15 | 73 | 1007.9 |
| 20260506204006 | 21 | 165 | 1.6 | 4.8 | 0.00 | 0.15 | 0.15 | 72 | 1007.9 |
| 20260506203506 | 21 | 194 | 0.0 | 6.4 | 0.00 | 0.15 | 0.15 | 73 | 1007.8 |
| 20260506203023 | 21 | 200 | 1.6 | 6.4 | 0.00 | 0.15 | 0.15 | 72 | 1007.7 |
| 20260506201530 | 22 | 273 | 1.6 | 6.4 | 0.00 | 0.15 | 0.15 | 71 | 1007.7 |
| 20260506201012 | 22 | 296 | 3.2 | 8.0 | 0.00 | 0.15 | 0.15 | 72 | 1007.7 |
| 20260506200509 | 21 | 260 | 1.6 | 8.0 | 0.00 | 0.15 | 0.15 | 72 | 1007.7 |
| 20260506200013 | 21 | 236 | 3.2 | 12.9 | 0.00 | 0.15 | 0.15 | 73 | 1007.7 |
| 20260506195506 | 21 | 263 | 6.4 | 12.9 | 0.00 | 0.15 | 0.15 | 71 | 1007.7 |
| 20260506195007 | 21 | 275 | 0.0 | 4.8 | 0.00 | 0.15 | 0.15 | 71 | 1007.7 |
| 20260506194523 | 22 | 223 | 1.6 | 4.8 | 0.00 | 0.15 | 0.15 | 71 | 1007.8 |
| 20260506194010 | 22 | 257 | 1.6 | 14.5 | 0.00 | 0.15 | 0.15 | 71 | 1007.9 |
| 20260506193512 | 22 | 213 | 3.2 | 14.5 | 0.00 | 0.15 | 0.15 | 71 | 1007.8 |
| 20260506193024 | 21 | 181 | 0.0 | 6.4 | 0.00 | 0.15 | 0.15 | 74 | 1007.8 |
| 20260506192509 | 21 | 279 | 1.6 | 8.0 | 0.00 | 0.15 | 0.15 | 73 | 1007.9 |
| 20260506192007 | 21 | 211 | 1.6 | 8.0 | 0.00 | 0.15 | 0.15 | 75 | 1008.0 |
| 20260506191007 | 20 | 254 | 1.6 | 11.3 | 0.00 | 0.15 | 0.15 | 75 | 1008.0 |
| 20260506190033 | 20 | 268 | 1.6 | 9.7 | 0.00 | 0.15 | 0.15 | 76 | 1008.2 |
| 20260506185509 | 20 | 210 | 0.0 | 8.0 | 0.00 | 0.15 | 0.15 | 77 | 1008.3 |
| 20260506185009 | 20 | 190 | 1.6 | 8.0 | 0.00 | 0.15 | 0.15 | 77 | 1008.4 |
| 20260506184525 | 20 | 144 | 3.2 | 8.0 | 0.00 | 0.15 | 0.15 | 75 | 1008.5 |
| 20260506184008 | 20 | 174 | 1.6 | 6.4 | 0.00 | 0.15 | 0.15 | 76 | 1008.5 |
| 20260506183508 | 20 | 260 | 0.0 | 9.7 | 0.00 | 0.15 | 0.15 | 76 | 1008.5 |
| 20260506183019 | 20 | 239 | 3.2 | 9.7 | 0.00 | 0.15 | 0.15 | 76 | 1008.7 |
| 20260506182506 | 20 | 294 | 3.2 | 9.7 | 0.00 | 0.15 | 0.15 | 77 | 1008.7 |
| 20260506182014 | 20 | 186 | 3.2 | 9.7 | 0.00 | 0.15 | 0.15 | 79 | 1008.8 |
| 20260506181526 | 19 | 250 | 3.2 | 12.9 | 0.00 | 0.15 | 0.15 | 79 | 1008.7 |
| 20260506181012 | 19 | 257 | 4.8 | 12.9 | 0.00 | 0.15 | 0.15 | 78 | 1008.9 |
| 20260506180511 | 19 | 275 | 3.2 | 11.3 | 0.00 | 0.15 | 0.15 | 79 | 1008.8 |
| 20260506180005 | 19 | 273 | 1.6 | 11.3 | 0.00 | 0.15 | 0.15 | 79 | 1008.9 |
| 20260506175502 | 18 | 260 | 3.2 | 11.3 | 0.00 | 0.15 | 0.15 | 80 | 1009.0 |
| 20260506175003 | 18 | 235 | 4.8 | 16.1 | 0.00 | 0.15 | 0.15 | 80 | 1009.0 |
| 20260506174505 | 18 | 250 | 3.2 | 16.1 | 0.00 | 0.15 | 0.15 | 80 | 1009.0 |
| 20260506174003 | 18 | 306 | 3.2 | 16.1 | 0.00 | 0.15 | 0.15 | 82 | 1008.9 |
| 20260506173504 | 18 | 237 | 0.0 | 11.3 | 0.00 | 0.15 | 0.15 | 82 | 1009.0 |
| 20260506173005 | 18 | 352 | 3.2 | 11.3 | 0.00 | 0.15 | 0.15 | 82 | 1009.1 |
| 20260506172503 | 18 | 231 | 1.6 | 11.3 | 0.00 | 0.15 | 0.15 | 83 | 1009.2 |
| 20260506172003 | 18 | 257 | 1.6 | 4.8 | 0.00 | 0.15 | 0.15 | 85 | 1009.2 |
| 20260506171513 | 18 | 288 | 3.2 | 4.8 | 0.00 | 0.15 | 0.15 | 85 | 1009.1 |
| 20260506171003 | 17 | 249 | 1.6 | 11.3 | 0.00 | 0.15 | 0.15 | 85 | 1009.2 |
| 20260506170502 | 17 | 270 | 1.6 | 11.3 | 0.00 | 0.15 | 0.15 | 85 | 1009.1 |
| 20260506170004 | 17 | 285 | 3.2 | 11.3 | 0.00 | 0.15 | 0.15 | 85 | 1009.2 |
| 20260506165507 | 17 | 106 | 3.2 | 6.4 | 0.00 | 0.15 | 0.15 | 85 | 1009.3 |
| 20260506165005 | 17 | 282 | 3.2 | 11.3 | 0.03 | 0.15 | 0.15 | 86 | 1009.4 |
| 20260506164505 | 17 | 197 | 1.6 | 11.3 | 0.03 | 0.15 | 0.15 | 86 | 1009.5 |
| 20260506164002 | 17 | 287 | 3.2 | 11.3 | 0.03 | 0.15 | 0.15 | 87 | 1009.3 |
| 20260506163503 | 17 | 250 | 0.0 | 6.4 | 0.03 | 0.15 | 0.15 | 88 | 1009.3 |
| 20260506163004 | 17 | 313 | 1.6 | 6.4 | 0.03 | 0.15 | 0.15 | 88 | 1009.4 |
| 20260506162505 | 17 | 231 | 1.6 | 6.4 | 0.05 | 0.15 | 0.15 | 89 | 1009.3 |
| 20260506162007 | 16 | 119 | 1.6 | 4.8 | 0.05 | 0.15 | 0.15 | 89 | 1009.2 |
| 20260506161505 | 16 | 215 | 0.0 | 4.8 | 0.05 | 0.15 | 0.15 | 89 | 1009.4 |
| 20260506161003 | 16 | 40 | 1.6 | 6.4 | 0.05 | 0.15 | 0.15 | 89 | 1009.6 |
| 20260506160506 | 16 | 187 | 0.0 | 6.4 | 0.05 | 0.15 | 0.15 | 88 | 1009.8 |
| 20260506160005 | 16 | 169 | 0.0 | 4.8 | 0.08 | 0.15 | 0.15 | 89 | 1009.8 |
| 20260506155503 | 16 | 139 | 0.0 | 8.0 | 0.10 | 0.15 | 0.15 | 89 | 1009.8 |
| 20260506155003 | 16 | 157 | 0.0 | 8.0 | 0.10 | 0.13 | 0.13 | 89 | 1009.7 |
| 20260506154524 | 16 | 279 | 0.0 | 6.4 | 0.10 | 0.13 | 0.13 | 88 | 1009.9 |
| 20260506154003 | 16 | 109 | 0.0 | 6.4 | 0.13 | 0.13 | 0.13 | 88 | 1009.3 |
| 20260506153504 | 16 | 184 | 0.0 | 4.8 | 0.13 | 0.13 | 0.13 | 88 | 1009.6 |
| 20260506153006 | 16 | 332 | 1.6 | 4.8 | 0.13 | 0.13 | 0.13 | 88 | 1009.9 |
| 20260506152504 | 16 | 327 | 0.0 | 3.2 | 0.10 | 0.10 | 0.10 | 88 | 1010.0 |
| 20260506152006 | 16 | 266 | 0.0 | 3.2 | 0.10 | 0.10 | 0.10 | 88 | 1010.3 |
| 20260506151506 | 16 | 111 | 0.0 | 1.6 | 0.10 | 0.10 | 0.10 | 88 | 1010.4 |
| 20260506151002 | 16 | 101 | 0.0 | 3.2 | 0.10 | 0.10 | 0.10 | 88 | 1010.5 |
| 20260506150502 | 16 | 110 | 0.0 | 3.2 | 0.10 | 0.10 | 0.10 | 87 | 1010.5 |
| 20260506150007 | 16 | 305 | 0.0 | 4.8 | 0.08 | 0.08 | 0.08 | 86 | 1010.5 |
| 20260506145505 | 16 | 316 | 1.6 | 4.8 | 0.05 | 0.05 | 0.05 | 85 | 1010.6 |
| 20260506145003 | 16 | 234 | 0.0 | 3.2 | 0.03 | 0.03 | 0.03 | 85 | 1010.6 |
| 20260506144505 | 16 | 188 | 0.0 | 4.8 | 0.03 | 0.03 | 0.03 | 84 | 1010.5 |
| 20260506144004 | 16 | 19 | 1.6 | 4.8 | 0.00 | 0.00 | 0.00 | 83 | 1010.4 |
| 20260506143507 | 17 | 229 | 1.6 | 4.8 | 0.00 | 0.00 | 0.00 | 82 | 1010.4 |
| 20260506143009 | 17 | 173 | 0.0 | 4.8 | 0.00 | 0.00 | 0.00 | 82 | 1010.4 |
| 20260506142503 | 17 | 321 | 0.0 | 3.2 | 0.00 | 0.00 | 0.00 | 82 | 1010.4 |
| 20260506142004 | 17 | 126 | 0.0 | 6.4 | 0.00 | 0.00 | 0.00 | 81 | 1010.5 |
| 20260506141509 | 17 | 213 | 0.0 | 6.4 | 0.00 | 0.00 | 0.00 | 79 | 1010.5 |
| 20260506141007 | 17 | 164 | 0.0 | 3.2 | 0.00 | 0.00 | 0.00 | 79 | 1010.5 |
| 20260506140504 | 17 | 165 | 0.0 | 6.4 | 0.00 | 0.00 | 0.00 | 79 | 1010.5 |
| 20260506140017 | 17 | 168 | 0.0 | 9.7 | 0.00 | 0.00 | 0.00 | 78 | 1010.6 |
| 20260506135503 | 18 | 5 | 0.0 | 9.7 | 0.00 | 0.00 | 0.00 | 76 | 1010.8 |
| 20260506135003 | 18 | 209 | 0.0 | 6.4 | 0.00 | 0.00 | 0.00 | 75 | 1011.0 |
| 20260506134508 | 18 | 254 | 0.0 | 6.4 | 0.00 | 0.00 | 0.00 | 73 | 1010.9 |
| 20260506134007 | 18 | 135 | 1.6 | 6.4 | 0.00 | 0.00 | 0.00 | 72 | 1010.8 |
| 20260506133505 | 18 | 329 | 0.0 | 4.8 | 0.00 | 0.00 | 0.00 | 74 | 1010.7 |
| 20260506133006 | 18 | 192 | 0.0 | 3.2 | 0.00 | 0.00 | 0.00 | 73 | 1010.6 |
| 20260506131007 | 18 | 231 | 1.6 | 6.4 | 0.00 | 0.00 | 0.00 | 71 | 1010.2 |
| 20260506130507 | 18 | 198 | 0.0 | 6.4 | 0.00 | 0.00 | 0.00 | 72 | 1010.3 |
| 20260506125503 | 18 | 200 | 1.6 | 6.4 | 0.00 | 0.00 | 0.00 | 72 | 1010.3 |
| 20260506125005 | 18 | 123 | 1.6 | 6.4 | 0.00 | 0.00 | 0.00 | 72 | 1010.3 |
| 20260506124009 | 18 | 174 | 0.0 | 9.7 | 0.00 | 0.00 | 0.00 | 73 | 1010.3 |
| 20260506123502 | 18 | 296 | 0.0 | 6.4 | 0.00 | 0.00 | 0.00 | 73 | 1010.5 |
| 20260506123010 | 18 | 130 | 0.0 | 8.0 | 0.00 | 0.00 | 0.00 | 73 | 1010.5 |
| 20260506122509 | 18 | 309 | 1.6 | 8.0 | 0.00 | 0.00 | 0.00 | 73 | 1010.7 |
| 20260506122003 | 18 | 9 | 1.6 | 6.4 | 0.00 | 0.00 | 0.00 | 73 | 1010.7 |
| 20260506121510 | 18 | 123 | 1.6 | 11.3 | 0.00 | 0.00 | 0.00 | 73 | 1010.7 |
| 20260506120010 | 18 | 295 | 1.6 | 8.0 | 0.00 | 0.00 | 0.00 | 72 | 1010.5 |
| 20260506115504 | 18 | 44 | 3.2 | 6.4 | 0.00 | 0.00 | 0.00 | 72 | 1010.4 |
| 20260506115003 | 18 | 150 | 1.6 | 6.4 | 0.00 | 0.00 | 0.00 | 73 | 1010.4 |
| 20260506114510 | 18 | 204 | 1.6 | 6.4 | 0.00 | 0.00 | 0.00 | 73 | 1010.3 |
| 20260506114005 | 18 | 114 | 1.6 | 8.0 | 0.00 | 0.00 | 0.00 | 73 | 1010.2 |
| 20260506113507 | 18 | 61 | 1.6 | 8.0 | 0.00 | 0.00 | 0.00 | 73 | 1010.1 |
| 20260506112502 | 18 | 317 | 0.0 | 6.4 | 0.00 | 0.00 | 0.00 | 74 | 1010.2 |
| 20260506111004 | -17 | 0.0 | 0.0 | 0.00 | 0.00 | 0.00 | 1010.0 | ||
| 20260506110506 | -17 | 0.0 | 0.0 | 0.00 | 0.00 | 0.00 | 1010.0 | ||
| 20260506110017 | -17 | 0.0 | 0.0 | 0.00 | 0.00 | 0.00 | 1009.9 | ||
| 20260506104007 | -17 | 0.0 | 0.0 | 0.00 | 0.00 | 0.00 | 1009.9 | ||
| 20260506103507 | -17 | 0.0 | 0.0 | 0.00 | 0.00 | 0.00 | 1009.9 | ||
| 20260506103019 | -17 | 0.0 | 0.0 | 0.00 | 0.00 | 0.00 | 1009.8 | ||
| 20260506102508 | -17 | 0.0 | 0.0 | 0.00 | 0.00 | 0.00 | 1010.0 | ||
| 20260506102006 | -17 | 0.0 | 0.0 | 0.00 | 0.00 | 0.00 | 1009.9 | ||
| 20260506101517 | -17 | 0.0 | 0.0 | 0.00 | 0.00 | 0.00 | 1009.8 | ||
| 20260506101007 | -17 | 0.0 | 0.0 | 0.00 | 0.00 | 0.00 | 1009.9 | ||
| 20260506100505 | -17 | 0.0 | 0.0 | 0.00 | 0.00 | 0.00 | 1009.8 | ||
| 20260506100016 | -17 | 0.0 | 0.0 | 0.00 | 0.00 | 0.00 | 1009.8 | ||
| 20260506095507 | -17 | 0.0 | 0.0 | 0.00 | 0.00 | 0.00 | 1009.8 | ||
| 20260506095009 | -17 | 0.0 | 0.0 | 0.00 | 0.00 | 0.00 | 1009.9 | ||
| 20260506094521 | -17 | 0.0 | 0.0 | 0.00 | 0.00 | 0.00 | 1009.8 | ||
| 20260506094008 | -17 | 0.0 | 0.0 | 0.00 | 0.00 | 0.00 | 1009.8 | ||
| 20260506093507 | -17 | 0.0 | 0.0 | 0.00 | 0.00 | 0.00 | 1009.9 | ||
| 20260506092504 | -17 | 0.0 | 0.0 | 0.00 | 0.00 | 0.00 | 1009.9 | ||
| 20260506092009 | -17 | 0.0 | 0.0 | 0.00 | 0.00 | 0.00 | 1010.0 | ||
| 20260506091521 | -17 | 0.0 | 0.0 | 0.00 | 0.00 | 0.00 | 1010.0 | ||
| 20260506091007 | -17 | 0.0 | 0.0 | 0.00 | 0.00 | 0.00 | 1009.9 | ||
| 20260506090508 | -17 | 0.0 | 0.0 | 0.00 | 0.00 | 0.00 | 1010.0 | ||
| 20260506090023 | -17 | 0.0 | 0.0 | 0.00 | 0.00 | 0.00 | 1010.1 | ||
| 20260506085507 | -17 | 0.0 | 0.0 | 0.00 | 0.00 | 0.00 | 1010.0 | ||
| 20260506085008 | -17 | 0.0 | 0.0 | 0.00 | 0.00 | 0.00 | 1010.0 | ||
| 20260506084521 | -17 | 0.0 | 0.0 | 0.00 | 0.00 | 0.00 | 1010.0 | ||
| 20260506084008 | -17 | 0.0 | 0.0 | 0.00 | 0.00 | 0.00 | 1009.9 | ||
| 20260506083508 | -17 | 0.0 | 0.0 | 0.00 | 0.00 | 0.00 | 1009.9 | ||
| 20260506083024 | -17 | 0.0 | 0.0 | 0.00 | 0.00 | 0.00 | 1010.0 | ||
| 20260506082009 | -17 | 0.0 | 0.0 | 0.00 | 0.00 | 0.00 | 1010.0 | ||
| 20260506081012 | -17 | 0.0 | 0.0 | 0.00 | 0.00 | 0.00 | 1009.9 | ||
| 20260506080508 | -17 | 0.0 | 0.0 | 0.00 | 0.00 | 0.00 | 1010.0 | ||
| 20260506073514 | -17 | 0.0 | 0.0 | 0.00 | 0.00 | 0.00 | 1010.1 | ||
| 20260506073021 | -17 | 0.0 | 0.0 | 0.00 | 0.00 | 0.00 | 1010.2 | ||
| 20260506072512 | -17 | 0.0 | 0.0 | 0.00 | 0.00 | 0.00 | 1010.2 | ||
| 20260506072009 | -17 | 0.0 | 0.0 | 0.00 | 0.00 | 0.00 | 1010.2 |